METLOCID,DATE_TIME,AVG_AIRT2M,STDDEV_AIRT2M,MIN_AIRT2M,MAX_AIRT2M,N_AIRT2M,AVG_AIRT1M,STDDEV_AIRT1M,MIN_AIRT1M,MAX_AIRT1M,N_AIRT1M,AVG_AIRT3M,STDDEV_AIRT3M,MIN_AIRT3M,MAX_AIRT3M,N_AIRT3M,N_COMMENTS
CAAM,12/1/94,-8.9128,0.589466708,-10.07,-7.93,25,,,,,0,,,,,0,0
CAAM,12/2/94,-9.401666667,0.917820443,-11.37,-6.75,72,,,,,0,,,,,0,0
CAAM,12/3/94,-9.136410256,1.667859465,-11.41,-6.04,39,,,,,0,,,,,0,33
CAAM,12/4/94,,,,,0,,,,,0,,,,,0,72
CAAM,12/5/94,,,,,0,,,,,0,,,,,0,72
CAAM,12/6/94,,,,,0,,,,,0,,,,,0,72
CAAM,12/7/94,-5.104761905,0.304870777,-5.72,-4.62,21,,,,,0,,,,,0,51
CAAM,12/8/94,-5.551388889,0.95721766,-7.84,-4.1,72,,,,,0,,,,,0,0
CAAM,12/9/94,-3.824722222,1.42083587,-6.85,-2.01,72,,,,,0,,,,,0,0
CAAM,12/10/94,-3.579722222,0.96473739,-6.01,-0.84,72,,,,,0,,,,,0,0
CAAM,12/11/94,-3.126805556,0.725782388,-4.67,-1.73,72,,,,,0,,,,,0,0
CAAM,12/12/94,-1.79056338,1.180438039,-3.97,1.06,71,,,,,0,,,,,0,1
CAAM,12/13/94,-2.095,1.555930952,-4.73,0.87,72,,,,,0,,,,,0,0
CAAM,12/14/94,-4.217638889,0.465933844,-5.26,-3.04,72,,,,,0,,,,,0,0
CAAM,12/15/94,-2.727777778,1.128361922,-4.8,-0.51,72,,,,,0,,,,,0,0
CAAM,12/16/94,-3.328611111,0.433509444,-4.1,-1.98,72,,,,,0,,,,,0,0
CAAM,12/17/94,-3.393888889,0.676150153,-4.64,-1.73,72,,,,,0,,,,,0,0
CAAM,12/18/94,-4.032083333,0.68763923,-5.5,-2.98,72,,,,,0,,,,,0,0
CAAM,12/19/94,-4.1175,0.79676591,-5.43,-2.26,72,,,,,0,,,,,0,0
CAAM,12/20/94,-4.580694444,0.923321204,-6.47,-3.05,72,,,,,0,,,,,0,0
CAAM,12/21/94,-7.283472222,0.771450362,-9.15,-6.13,72,,,,,0,,,,,0,0
CAAM,12/22/94,-5.334861111,1.364434561,-7.11,-2.66,72,,,,,0,,,,,0,0
CAAM,12/23/94,-6.385555556,1.373259604,-8.38,-2.63,72,,,,,0,,,,,0,0
CAAM,12/24/94,-5.333194444,0.630503547,-7.22,-4.09,72,,,,,0,,,,,0,0
CAAM,12/25/94,-5.288888889,1.298665139,-7.78,-2.69,72,,,,,0,,,,,0,0
CAAM,12/26/94,-5.240972222,1.39019723,-7.94,-3.07,72,,,,,0,,,,,0,0
CAAM,12/27/94,-3.051388889,1.189365206,-5.59,-1.09,72,,,,,0,,,,,0,0
CAAM,12/28/94,-2.63375,1.296237717,-4.79,-0.15,72,,,,,0,,,,,0,0
CAAM,12/29/94,-1.387361111,1.072553873,-3.1,1.58,72,,,,,0,,,,,0,0
CAAM,12/30/94,-1.576944444,1.438214502,-3.89,2.96,72,,,,,0,,,,,0,0
CAAM,12/31/94,-2.558055556,0.671314957,-3.75,-1.21,72,,,,,0,,,,,0,0
CAAM,1/1/95,-1.286805556,1.244545085,-3.61,1.79,72,,,,,0,,,,,0,0
CAAM,1/2/95,-2.056944444,1.934356274,-6.86,2.46,72,,,,,0,,,,,0,0
CAAM,1/3/95,-7.379722222,0.51052575,-8.76,-6.43,72,,,,,0,,,,,0,0
CAAM,1/4/95,-6.025694444,1.439422641,-8.14,-2.62,72,,,,,0,,,,,0,0
CAAM,1/5/95,-4.71375,1.145947468,-6.42,-1.17,72,,,,,0,,,,,0,0
CAAM,1/6/95,-5.403055556,1.10343336,-7.32,-2.41,72,,,,,0,,,,,0,0
CAAM,1/7/95,-4.212361111,1.804516628,-7.98,-1.42,72,,,,,0,,,,,0,0
CAAM,1/8/95,-1.389444444,1.084989633,-4.1,0.9,72,,,,,0,,,,,0,0
CAAM,1/9/95,-0.91,1.100741108,-3.03,2.12,72,,,,,0,,,,,0,0
CAAM,1/10/95,-1.351527778,1.104168363,-4.43,1.06,72,,,,,0,,,,,0,0
CAAM,1/11/95,-2.253194444,1.079656735,-4.19,0.3,72,,,,,0,,,,,0,0
CAAM,1/12/95,-5.4375,1.165431372,-7.38,-3.63,72,,,,,0,,,,,0,0
CAAM,1/13/95,-6.239722222,0.786846035,-7.62,-4.31,72,,,,,0,,,,,0,0
CAAM,1/14/95,-5.406111111,1.505382414,-8,-2.74,72,,,,,0,,,,,0,0
CAAM,1/15/95,-4.590833333,1.151493519,-6.09,-0.62,72,,,,,0,,,,,0,0
CAAM,1/16/95,-4.311527778,1.34148505,-6.5,-0.96,72,,,,,0,,,,,0,0
CAAM,1/17/95,-4.114305556,0.812930408,-5.94,-1.05,72,,,,,0,,,,,0,0
CAAM,1/18/95,-5.329444444,0.569936712,-6.49,-3.81,72,,,,,0,,,,,0,0
CAAM,1/19/95,-5.305555556,1.306423878,-7.49,-2.76,72,,,,,0,,,,,0,0
CAAM,1/20/95,-4.95375,1.196502459,-6.85,-2.69,72,,,,,0,,,,,0,0
CAAM,1/21/95,-4.595555556,1.525733141,-6.85,-1.92,45,,,,,0,,,,,0,0
CAAM,11/20/95,-7.898333333,0.463183015,-8.86,-6.87,30,-8.379,0.364089322,-9.25,-7.72,30,,,,,0,0
CAAM,11/21/95,-6.994166667,2.19679128,-10.08,-1.27,96,-7.529375,1.748560197,-10.47,-4.66,96,,,,,0,0
CAAM,11/22/95,-3.003229167,1.766455562,-5.93,-0.38,96,-3.256666667,1.717482654,-6.13,-0.88,96,,,,,0,0
CAAM,11/23/95,-3.811979167,2.647188228,-8.07,3.01,96,-4.121145833,2.454337029,-8.13,1.54,96,,,,,0,0
CAAM,11/24/95,0.0978125,1.369906799,-3.74,3.04,96,-0.60125,1.159363028,-4.15,1.43,96,,,,,0,0
CAAM,11/25/95,0.310729167,1.890695358,-3.44,5.68,96,-0.8684375,1.306310456,-3.9,2.45,96,,,,,0,0
CAAM,11/26/95,-1.680520833,1.690756523,-6.18,0.87,96,-2.1596875,1.703338798,-6.24,0.32,96,,,,,0,0
CAAM,11/27/95,-3.6040625,1.527302113,-5.58,0.01,96,-3.8540625,1.466125993,-5.85,-0.75,96,,,,,0,0
CAAM,11/28/95,-3.982604167,1.701001714,-7.1,0.72,96,-4.565,1.304912984,-7.26,-1.87,96,,,,,0,0
CAAM,11/29/95,-3.7690625,1.732043562,-7.62,-0.53,96,-4.221458333,1.352504094,-7.63,-2.05,96,,,,,0,0
CAAM,11/30/95,-5.7615625,2.405672388,-10.11,-0.18,96,-6.450520833,1.955667806,-10.76,-2.7,96,,,,,0,0
CAAM,12/1/95,-4.044583333,2.971882592,-10.04,1.02,96,-5.0378125,2.544784637,-9.9,-1.21,96,,,,,0,0
CAAM,12/2/95,-1.200104167,1.884488201,-4.15,2.73,96,-2.1590625,1.585630924,-5.21,0.9,96,,,,,0,0
CAAM,12/3/95,-2.060208333,1.21290515,-4.06,0.93,96,-2.680104167,0.947434758,-4.31,-0.06,96,,,,,0,0
CAAM,12/4/95,-2.990625,1.083802092,-5.21,1.18,96,-3.442083333,0.835360517,-5.35,-0.87,96,,,,,0,0
CAAM,12/5/95,-3.840520833,0.976525926,-5.67,-2.06,96,-4.082083333,0.9796744,-5.92,-2.52,96,,,,,0,0
CAAM,12/6/95,-3.460625,1.807493649,-6.25,2.12,96,-3.7840625,1.437742073,-6.23,-0.38,96,,,,,0,0
CAAM,12/7/95,-4.867291667,1.002094101,-7.38,-3.07,96,-5.0090625,0.884884861,-7.34,-3.67,96,,,,,0,0
CAAM,12/8/95,-3.720729167,2.616838689,-7.46,2.35,96,-4.5621875,1.810149283,-7.39,-0.85,96,,,,,0,0
CAAM,12/9/95,-1.208958333,0.927969463,-3.96,0.79,96,-1.7540625,0.701202843,-4.25,-0.6,96,,,,,0,0
CAAM,12/10/95,0.300833333,2.131211994,-3.98,4,96,-0.055208333,1.969587175,-4.03,3.06,96,,,,,0,0
CAAM,12/11/95,-0.892395833,1.0927481,-2.54,3.35,96,-1.075416667,0.840925451,-2.53,1.06,96,,,,,0,1
CAAM,12/12/95,-2.2209375,0.868307583,-4.04,-0.42,96,-2.389895833,0.719597102,-4.03,-0.78,96,,,,,0,0
CAAM,12/13/95,-1.923854167,1.835488387,-4.35,6.67,96,-2.2659375,1.398974495,-4.34,2.97,96,,,,,0,0
CAAM,12/14/95,-1.370416667,1.038544444,-3.26,2.27,96,-1.7453125,0.77908442,-3.5,0.4,96,,,,,0,0
CAAM,12/15/95,-0.213020833,1.509533996,-2.92,4.5,96,-0.730625,1.122599251,-3.06,2.58,96,,,,,0,0
CAAM,12/16/95,-2.950520833,1.58630877,-5.43,2.33,96,-3.235833333,1.271138459,-5.47,-0.24,96,,,,,0,0
CAAM,12/17/95,-4.109166667,0.931781165,-5.91,-2.57,96,-4.158645833,0.88829656,-5.94,-2.91,96,,,,,0,0
CAAM,12/18/95,-3.601875,1.844898122,-6.74,0.39,96,-3.8184375,1.705124986,-6.95,-0.19,96,,,,,0,0
CAAM,12/19/95,-3.434895833,1.291427602,-5.71,-0.21,96,-3.8146875,0.971822978,-5.71,-1.95,96,,,,,0,0
CAAM,12/20/95,-1.268854167,1.697035105,-4.38,2.05,96,-1.843854167,1.377213334,-4.4,0.83,96,,,,,0,0
CAAM,12/21/95,1.024375,2.308134272,-3.33,6.73,96,0.4146875,2.074796098,-3.46,4.99,96,,,,,0,0
CAAM,12/22/95,0.455520833,1.099005167,-1.19,3.56,96,0.173333333,0.956514139,-1.36,2.51,96,,,,,0,0
CAAM,12/23/95,2.931979167,1.699600337,-0.04,7.02,96,2.193125,1.313586743,-0.26,4.63,96,,,,,0,0
CAAM,12/24/95,3.207604167,1.591781356,0.92,8.09,96,2.489791667,1.08324559,0.67,5.85,96,,,,,0,0
CAAM,12/25/95,0.272604167,1.297428424,-1.79,5.99,96,-0.0515625,1.025096995,-1.95,4.49,96,,,,,0,0
CAAM,12/26/95,-0.650729167,1.23863868,-2.4,2.91,96,-0.828125,1.068201945,-2.47,2.11,96,,,,,0,0
CAAM,12/27/95,-0.867708333,1.314140487,-3.39,1.62,96,-1.291666667,1.077745861,-3.34,0.61,96,,,,,0,0
CAAM,12/28/95,-0.733541667,1.40460744,-3.18,2.62,96,-1.182291667,1.065956925,-3.31,1.11,96,,,,,0,0
CAAM,12/29/95,-1.750208333,1.336633618,-4.11,2.12,96,-1.963541667,1.117736415,-4.06,1.08,96,,,,,0,0
CAAM,12/30/95,-3.007708333,0.980804696,-4.7,-1.16,96,-3.201875,0.932980862,-4.84,-1.5,96,,,,,0,0
CAAM,12/31/95,-0.635625,2.105216485,-4.49,7.07,96,-1.5503125,1.819389402,-4.84,5.73,96,,,,,0,0
CAAM,1/1/96,-4.185520833,1.586092763,-6.15,-0.22,96,-4.3075,1.409736818,-6.11,-0.69,96,,,,,0,0
CAAM,1/2/96,-5.104583333,1.080559228,-6.42,-1.83,96,-5.297604167,0.793877552,-6.38,-2.99,96,,,,,0,0
CAAM,1/3/96,-5.131354167,1.181759277,-7.15,-2.06,96,-5.3025,1.031089358,-7.16,-2.98,96,,,,,0,0
CAAM,1/4/96,-4.399479167,1.78489709,-7.28,2.11,96,-4.638125,1.610792752,-7.57,0.08,96,,,,,0,0
CAAM,1/5/96,-5.939166667,0.996348773,-7.1,-2.41,96,-5.978333333,0.906801976,-7.09,-2.97,96,,,,,0,0
CAAM,1/6/96,-5.441666667,1.799008304,-7.76,0.4,96,-5.7884375,1.358146049,-7.84,-1.97,96,,,,,0,0
CAAM,1/7/96,-4.043229167,1.230227617,-6.04,-2.16,96,-4.251041667,1.24033907,-6.25,-2.43,96,,,,,0,0
CAAM,1/8/96,-3.96125,0.951170193,-5.28,-1.13,96,-4.38,0.803957318,-5.51,-2.25,96,,,,,0,0
CAAM,1/9/96,-3.316979167,1.100135035,-5.44,-1.51,96,-3.536770833,1.041493356,-5.56,-1.75,96,,,,,0,0
CAAM,1/10/96,-0.004166667,2.776126672,-3.81,7.82,96,-0.72,2.258154347,-3.85,5.16,96,,,,,0,0
CAAM,1/11/96,0.795833333,1.455349238,-2.95,3.65,96,0.218020833,1.285864542,-3.11,3.36,96,,,,,0,0
CAAM,1/12/96,-3.3915625,0.855786899,-4.82,-1.2,96,-3.523333333,0.780610647,-4.84,-1.72,96,,,,,0,0
CAAM,1/13/96,-3.89125,0.305197951,-4.61,-3.25,96,-3.9234375,0.282111692,-4.6,-3.37,96,,,,,0,0
CAAM,1/14/96,-3.1421875,1.69566705,-5.05,2.82,96,-3.348854167,1.381060515,-5.24,1.09,96,,,,,0,0
CAAM,1/15/96,-4.536041667,1.05519814,-6.01,-0.31,96,-4.647604167,0.843513635,-5.99,-1.99,96,,,,,0,0
CAAM,1/16/96,-3.71,1.482528423,-6.06,-0.49,96,-3.9228125,1.270229737,-6.06,-1.86,96,,,,,0,0
CAAM,1/17/96,-2.355104167,2.200318156,-5.44,5.01,96,-2.852604167,1.691573073,-5.43,2.11,96,,,,,0,0
CAAM,1/18/96,-3.5046875,1.795256295,-6.38,1.86,96,-3.943125,1.504914275,-6.4,-0.42,96,,,,,0,0
CAAM,1/19/96,-4.06,2.024383467,-8.5,-0.58,96,-4.504583333,1.828249043,-8.82,-1.73,96,,,,,0,0
CAAM,1/20/96,-4.616041667,1.288092412,-7.55,-1.49,96,-4.9484375,1.177723342,-7.85,-2.65,96,,,,,0,0
CAAM,1/21/96,-4.7571875,1.194024335,-7.62,-2.07,96,-5.066041667,1.084189223,-7.63,-2.93,96,,,,,0,0
CAAM,1/22/96,-4.120416667,3.369224779,-9.56,1.24,96,-4.590833333,3.088346063,-10.02,-0.63,96,,,,,0,0
CAAM,1/23/96,-2.501354167,1.865937112,-5.51,1.64,96,-3.178125,1.568018738,-5.86,-0.23,96,,,,,0,0
CAAM,1/24/96,-4.005416667,1.613995315,-7.29,0.48,96,-4.358958333,1.335910869,-7.29,-1.48,96,,,,,0,0
CAAM,1/25/96,-2.200151515,2.468041573,-4.78,4.47,66,-2.74469697,2.073357901,-5.03,1.82,66,,,,,0,0
CAAM,1/26/96,-1.2,1.181709974,-4.32,0.36,27,-1.326666667,1.145801701,-4.34,0.91,27,,,,,0,0
CAAM,1/27/96,-3.728125,1.522688974,-7.06,-0.98,96,-3.737708333,1.543778331,-7.07,-1.23,96,,,,,0,0
CAAM,1/28/96,0.003020833,1.273962835,-2.52,1.64,96,-0.283125,1.256246131,-2.78,1.32,96,,,,,0,0
CAAM,1/29/96,-1.129479167,1.12994678,-3.28,0.74,96,-1.3678125,1.143742889,-3.56,0.43,96,,,,,0,0
CAAM,1/30/96,0.069375,1.12483993,-1.97,3.27,96,-0.1725,1.185637736,-2.19,3.09,96,,,,,0,0
CAAM,1/31/96,0.310208333,1.691000314,-2.46,3.5,96,0.078645833,1.74042803,-2.71,3.81,96,,,,,0,0
CAAM,2/1/96,-0.83125,1.279752649,-3.18,1.63,96,-0.911354167,1.34913822,-3.56,1.48,96,,,,,0,0
CAAM,2/2/96,-0.773229167,1.301836351,-3.36,2.62,96,-0.8921875,1.396347267,-3.38,2.4,96,,,,,0,0
CAAM,2/3/96,-1.91125,1.066924996,-3.47,2.52,96,-2.057395833,1.068241294,-4.03,1.67,96,,,,,0,0
CAAM,2/4/96,-0.9771875,1.412872925,-3.08,2.06,96,-1.157395833,1.606614777,-3.81,1.96,96,,,,,0,0
CAAM,2/5/96,-0.875,0.989582581,-2.7,0.97,96,-1.038020833,1.049895854,-2.86,0.94,96,,,,,0,0
CAAM,2/6/96,-1.098854167,1.888179781,-4.34,2.93,96,-1.1903125,1.947414725,-4.38,2.91,96,,,,,0,0
CAAM,2/7/96,-1.518854167,1.618321333,-3.54,1.72,96,-1.625833333,1.693623128,-3.77,2.24,96,,,,,0,0
CAAM,2/8/96,-4.3171875,1.694253261,-6.89,1.54,96,-4.4840625,1.642112618,-6.85,0.39,96,,,,,0,0
CAAM,2/9/96,-4.353333333,1.658003661,-6.8,-1.54,96,-4.493541667,1.703783393,-6.8,-1.14,96,,,,,0,0
CAAM,2/10/96,-3.929583333,1.11329659,-5.5,-1.58,96,-4.0890625,1.261526292,-5.79,-1.34,96,,,,,0,0
CAAM,2/11/96,-6.463125,1.012963669,-8.06,-4.46,96,-6.587916667,1.040162858,-8.66,-4.54,96,,,,,0,0
CAAM,2/12/96,-7.795520833,1.440808888,-10.08,-4,96,-7.898541667,1.560971343,-10.13,-3.98,96,,,,,0,0
CAAM,2/13/96,-9.710208333,1.102952,-11.55,-7.43,96,-9.870625,1.282978289,-12.12,-7.6,96,,,,,0,0
CAAM,2/14/96,-6.634375,2.693215575,-10.4,-1.73,96,-6.813854167,2.761013304,-10.62,-1.53,96,,,,,0,0
CAAM,2/15/96,-4.520625,1.167788565,-6.2,-1.12,96,-4.756666667,1.245828126,-6.43,-1.3,96,,,,,0,0
CAAM,2/16/96,-8.341770833,1.484085396,-11.22,-5.26,96,-8.479166667,1.467468043,-11.62,-5.71,96,,,,,0,0
CAAM,2/17/96,-7.806979167,2.39829945,-11.72,-3.44,96,-8.020104167,2.544550625,-11.9,-3.33,96,,,,,0,0
CAAM,2/18/96,-7.540520833,1.581859911,-11.16,-4.87,96,-7.708125,1.624231195,-11.29,-4.87,96,,,,,0,0
CAAM,2/19/96,-11.79364583,0.848786279,-12.84,-9.87,96,-12.07927083,0.909841218,-13.8,-9.98,96,,,,,0,0
CAAM,2/20/96,-10.41489583,2.107537348,-12.88,-3.18,96,-10.65447917,1.983471635,-12.92,-4.48,96,,,,,0,0
CAAM,2/21/96,-11.9146875,1.536906636,-15.61,-9.59,96,-12.050625,1.577530257,-15.81,-9.68,96,,,,,0,0
CAAM,2/22/96,-13.90770833,1.689720923,-16.61,-10.12,96,-14.23604167,1.919336223,-17.23,-9.88,96,,,,,0,0
CAAM,2/23/96,-13.21802083,1.456594167,-15.84,-11.02,96,-13.44114583,1.63409197,-16.36,-10.99,96,,,,,0,0
CAAM,2/24/96,-13.99197917,1.045126655,-15.81,-11.6,96,-13.9934375,1.074531798,-15.79,-11.83,96,,,,,0,0
CAAM,2/25/96,-16.195625,1.179897241,-18.26,-14.02,96,-16.3028125,1.255064438,-18.59,-13.94,96,,,,,0,0
CAAM,2/26/96,-14.20791667,1.696997917,-17.27,-9.44,96,-14.7221875,1.644443405,-17.99,-10.25,96,,,,,0,0
CAAM,2/27/96,-12.07135417,1.636200747,-14.24,-8.59,96,-12.37770833,1.725152917,-14.65,-8.81,96,,,,,0,0
CAAM,2/28/96,-11.77875,1.191781727,-13.6,-9.34,96,-12.34520833,1.161924881,-14.41,-9.66,96,,,,,0,0
CAAM,2/29/96,-13.52770833,1.652733289,-16.34,-9.95,96,-14.09239583,1.543861696,-16.9,-10.77,96,,,,,0,0
CAAM,3/1/96,-13.17010417,1.626877212,-16.83,-9.8,96,-13.39489583,1.728367648,-17.57,-10.04,96,,,,,0,0
CAAM,3/2/96,-9.895729167,1.837158415,-13.44,-7.59,96,-10.23489583,1.773174967,-13.61,-8.08,96,,,,,0,0
CAAM,3/3/96,-12.1340625,1.536339175,-16.12,-9.64,96,-12.63197917,1.440238737,-16.68,-10.48,96,,,,,0,0
CAAM,3/4/96,-15.93458333,1.4100242,-18.41,-12.28,96,-16.45614583,1.341507691,-19.06,-12.97,96,,,,,0,0
CAAM,3/5/96,-17.15677083,1.133215727,-19.24,-14.07,96,-17.45135417,1.258989252,-19.65,-14.29,96,,,,,0,0
CAAM,3/6/96,-17.80989583,0.697691675,-19.82,-16,96,-17.88489583,0.766748425,-19.93,-16.19,96,,,,,0,0
CAAM,3/7/96,-20.19197917,0.769187705,-21.5,-17.79,96,-20.50208333,0.755214737,-21.76,-18.17,96,,,,,0,0
CAAM,3/8/96,-18.910625,2.541423477,-21.99,-13.64,96,-19.3928125,2.533626776,-22.44,-13.97,96,,,,,0,0
CAAM,3/9/96,-12.8340625,0.715086418,-13.99,-10.36,96,-13.2440625,0.797642022,-15.03,-10.74,96,,,,,0,0
CAAM,3/10/96,-13.73854167,2.228468428,-18.07,-8.57,96,-13.83947917,2.195045315,-18.76,-8.84,96,,,,,0,0
CAAM,3/11/96,-15.46697917,1.332172045,-17.78,-12.92,96,-16.2828125,1.192691519,-18.43,-13.65,96,,,,,0,0
CAAM,3/12/96,-15.4965625,0.756618277,-17.14,-13.47,96,-15.9965625,0.813743563,-17.47,-13.72,96,,,,,0,0
CAAM,3/13/96,-18.8440625,1.423281293,-21.08,-15.87,96,-18.98072917,1.348152923,-21.13,-16.03,96,,,,,0,0
CAAM,3/14/96,-22.33635417,0.587704043,-23.45,-20.96,96,-22.59864583,0.640525475,-23.83,-21.2,96,,,,,0,0
CAAM,3/15/96,-21.67677083,0.696368769,-22.77,-19.17,96,-22.31041667,0.561689026,-23.45,-20.28,96,,,,,0,0
CAAM,3/16/96,-19.23083333,5.286463282,-23.4,-4.8,96,-19.79625,5.356092498,-24.57,-5.16,96,,,,,0,0
CAAM,3/17/96,-2.0359375,2.868615503,-8,1.51,96,-2.426979167,2.815293616,-8.33,1.04,96,,,,,0,0
CAAM,3/18/96,-13.621875,5.379703829,-18.95,-1.73,96,-13.63229167,5.262325177,-18.95,-2.06,96,,,,,0,0
CAAM,3/19/96,-22.20739583,1.591660665,-24.04,-19.03,96,-22.303125,1.650934225,-24.42,-19.03,96,,,,,0,0
CAAM,3/20/96,-17.541875,3.275934358,-23.71,-14.3,96,-17.81854167,3.340726041,-24.1,-14.53,96,,,,,0,0
CAAM,3/21/96,-14.57822917,1.001664924,-16.7,-12.47,96,-14.84427083,0.956198333,-16.87,-12.73,96,,,,,0,0
CAAM,3/22/96,-15.89510417,2.581324016,-19.81,-11.46,96,-16.46302083,2.725017864,-20.42,-11.78,96,,,,,0,0
CAAM,3/23/96,-20.15916667,0.828203721,-21.76,-17.89,96,-20.805,0.922698559,-23.05,-18.45,96,,,,,0,0
CAAM,3/24/96,-24.03385417,0.796804631,-25.33,-21.51,96,-24.68947917,0.711190802,-26.07,-22.57,96,,,,,0,0
CAAM,3/25/96,-21.22416667,0.993094755,-23.38,-19.7,96,-21.58760417,1.170653209,-24.17,-19.91,96,,,,,0,0
CAAM,3/26/96,-23.03072917,1.231547802,-25.96,-20.78,96,-23.30166667,1.403292119,-26.32,-20.84,96,,,,,0,0
CAAM,3/27/96,-22.94572917,1.065570018,-24.89,-20.51,96,-23.21208333,1.088997527,-25.28,-20.8,96,,,,,0,0
CAAM,3/28/96,-25.57,1.302281399,-28.3,-23.74,96,-25.9190625,1.296206675,-28.46,-23.84,96,,,,,0,0
CAAM,3/29/96,-20.60322917,4.806797488,-27.03,-13.44,96,-20.9775,4.909420804,-27.51,-13.62,96,,,,,0,0
CAAM,3/30/96,-10.35354167,1.829923196,-13.64,-7.77,96,-10.5578125,1.811234068,-13.82,-7.99,96,,,,,0,0
CAAM,3/31/96,-13.90447917,3.133604573,-16.5,-7.36,96,-14.12947917,3.119803762,-16.81,-7.58,96,,,,,0,0
CAAM,4/1/96,-20.77677083,2.621462627,-25.68,-15.26,96,-21.08364583,2.50525726,-25.66,-15.85,96,,,,,0,0
CAAM,4/2/96,-21.59229167,2.536295881,-25.81,-14.88,96,-21.99604167,2.384315185,-25.64,-15.26,96,,,,,0,0
CAAM,4/3/96,-20.93770833,3.161129538,-25.72,-14.87,96,-21.37552083,3.305377395,-26.02,-15.17,96,,,,,0,0
CAAM,4/4/96,-22.17104167,0.770381285,-23.65,-20.33,96,-23.0159375,0.710468456,-24.56,-21.45,96,,,,,0,0
CAAM,4/5/96,-23.66,0.708858237,-25.36,-22.37,96,-23.96625,0.721147113,-25.67,-22.7,96,,,,,0,0
CAAM,4/6/96,-19.72125,3.615615621,-25.56,-14.08,96,-19.97083333,3.644765437,-25.78,-14.34,96,,,,,0,0
CAAM,4/7/96,-18.57041667,1.607538109,-21.34,-15.38,96,-19.27010417,1.579959023,-21.96,-15.88,96,,,,,0,0
CAAM,4/8/96,-19.77677083,1.17023389,-22.7,-17.27,96,-20.0571875,1.260832393,-22.98,-17.48,96,,,,,0,0
CAAM,4/9/96,-17.35520833,3.487526941,-23,-11.94,96,-17.76625,3.673937584,-23.8,-12.25,96,,,,,0,0
CAAM,4/10/96,-24.00385417,1.342177626,-26.67,-22.14,96,-24.2325,1.358909005,-27.01,-22.43,96,,,,,0,0
CAAM,4/11/96,-19.49072917,4.565629315,-24.83,-11.45,96,-20.01458333,4.737268126,-26.07,-11.83,96,,,,,0,0
CAAM,4/12/96,-10.84208333,1.034152505,-12.92,-9.03,96,-11.13583333,1.02761007,-13.2,-9.3,96,,,,,0,0
CAAM,4/13/96,-11.2115625,4.032051934,-17.41,-5.22,96,-11.5575,4.011578505,-17.89,-5.57,96,,,,,0,0
CAAM,4/14/96,-14.8384375,1.852908569,-17.35,-9.95,96,-15.61447917,1.80193923,-18.16,-10.68,96,,,,,0,0
CAAM,4/15/96,-8.472083333,3.928821416,-15.35,-3.2,96,-8.965729167,3.81717993,-15.65,-3.64,96,,,,,0,0
CAAM,4/16/96,-11.05729167,2.233884264,-15.65,-8.87,96,-11.39645833,2.327627651,-16.32,-9.16,96,,,,,0,0
CAAM,4/17/96,-10.31895833,1.899867851,-14.67,-7.17,96,-10.72416667,1.919942251,-14.72,-7.54,96,,,,,0,0
CAAM,4/18/96,-16.16552083,1.196645196,-17.96,-13.32,96,-16.5440625,1.353294287,-18.92,-13.8,96,,,,,0,0
CAAM,4/19/96,-12.24552083,1.900082475,-17.17,-9.72,96,-12.90208333,1.932796129,-17.65,-10.21,96,,,,,0,0
CAAM,4/20/96,-10.39427083,2.12905007,-13.14,-6,96,-10.81,2.075566124,-13.49,-6.35,96,,,,,0,0
CAAM,4/21/96,-11.75791667,1.812830829,-15.17,-8.96,96,-12.08708333,1.763653455,-15.69,-9.27,96,,,,,0,0
CAAM,4/22/96,-12.430625,1.089488352,-14.48,-10.75,96,-13.2334375,1.061086661,-15.47,-11.41,96,,,,,0,0
CAAM,4/23/96,-18.0903125,3.693275099,-23,-11.61,96,-18.46104167,3.535391136,-23.23,-12.07,96,,,,,0,0
CAAM,4/24/96,-21.02302083,0.608349138,-22.13,-19.37,96,-21.42458333,0.501494433,-22.62,-20.03,96,,,,,0,0
CAAM,4/25/96,-17.93791667,1.450135323,-21.05,-14.72,96,-18.45572917,1.471965206,-21.7,-15.09,96,,,,,0,0
CAAM,4/26/96,-17.9065625,1.316996446,-21.34,-14.16,96,-18.44916667,1.287100918,-21.86,-14.57,96,,,,,0,0
CAAM,4/27/96,-24.0021875,1.12112181,-25.88,-21.31,96,-24.39822917,1.141695871,-26.25,-21.57,96,,,,,0,0
CAAM,4/28/96,-24.8290625,0.473822259,-25.77,-23.82,96,-25.24729167,0.498244242,-26.34,-24.14,96,,,,,0,0
CAAM,4/29/96,-24.05239583,1.515777893,-27.52,-20.26,96,-24.3121875,1.532219033,-27.7,-20.5,96,,,,,0,0
CAAM,4/30/96,-25.31083333,1.355052663,-27.39,-22.21,96,-25.86854167,1.375121031,-28.33,-22.73,96,,,,,0,0
CAAM,5/1/96,-28.01614583,0.515293212,-29.47,-26.78,96,-28.56708333,0.494018786,-29.94,-27.26,96,,,,,0,0
CAAM,5/2/96,-24.7840625,1.142163762,-28.41,-22.22,96,-25.32552083,1.13739117,-28.72,-22.66,96,,,,,0,0
CAAM,5/3/96,-22.958125,0.631324943,-24.35,-21.27,96,-23.59541667,0.656125657,-24.93,-21.78,96,,,,,0,0
CAAM,5/4/96,-24.56541667,1.181954596,-26.8,-22.29,96,-25.0571875,1.166297518,-27.11,-22.64,96,,,,,0,0
CAAM,5/5/96,-22.203125,1.789842282,-25.74,-19.66,96,-22.67989583,1.868476156,-26.18,-20,96,,,,,0,0
CAAM,5/6/96,-19.6534375,2.126141466,-25.06,-16.34,96,-20.14291667,2.269242358,-25.61,-16.68,96,,,,,0,0
CAAM,5/7/96,-21.941875,0.685117451,-23.38,-20.34,96,-22.4121875,0.69914866,-23.9,-20.81,96,,,,,0,0
CAAM,5/8/96,-20.5240625,0.683870684,-21.75,-18.36,96,-20.85114583,0.671955308,-22.03,-18.79,96,,,,,0,0
CAAM,5/9/96,-18.19114583,2.765994585,-22.4,-11.52,96,-18.7121875,2.819628271,-22.78,-11.91,96,,,,,0,0
CAAM,5/10/96,-12.39885417,2.212026396,-17.14,-10.5,96,-12.738125,2.362631589,-17.84,-10.79,96,,,,,0,0
CAAM,5/11/96,-15.64552083,1.803631932,-18.99,-12.31,96,-16.116875,1.842511622,-19.33,-12.57,96,,,,,0,0
CAAM,5/12/96,-17.9096875,1.092956833,-20.21,-15.87,96,-18.61666667,1.152920928,-21.04,-16.44,96,,,,,0,0
CAAM,5/13/96,-15.9371875,1.471711287,-19.37,-14.17,96,-16.27729167,1.609397062,-20.32,-14.48,96,,,,,0,0
CAAM,5/14/96,-14.76083333,2.197034205,-20.85,-12.75,96,-15.08989583,2.221777143,-21.26,-13,96,,,,,0,0
CAAM,5/15/96,-18.55291667,1.164559024,-20.93,-15.84,96,-19.053125,1.173897075,-21.08,-16.2,96,,,,,0,0
CAAM,5/16/96,-19.8046875,1.89923306,-22.66,-16.51,96,-20.44125,1.961986775,-23.64,-17.09,96,,,,,0,0
CAAM,5/17/96,-19.42708333,2.484224719,-23.79,-14.97,96,-19.785625,2.368286884,-24.03,-15.28,96,,,,,0,0
CAAM,5/18/96,-25.270625,0.702238245,-26.78,-23.92,96,-25.548125,0.766343763,-27.18,-24.13,96,,,,,0,0
CAAM,5/19/96,-25.78875,0.54765577,-27.14,-24.21,96,-26.079375,0.520179751,-27.32,-24.6,96,,,,,0,0
CAAM,5/20/96,-25.15322917,0.690446834,-26.94,-23.31,96,-25.4828125,0.716254443,-27.45,-23.62,96,,,,,0,0
CAAM,5/21/96,-28.39427083,1.845241815,-32.65,-26.16,96,-28.586875,1.902607802,-33.07,-26.33,96,,,,,0,0
CAAM,5/22/96,-33.6534375,0.867187624,-35,-31.41,96,-33.93479167,0.878794604,-35.25,-31.76,96,,,,,0,0
CAAM,5/23/96,-32.07927083,0.802142191,-33.75,-30.28,96,-32.4315625,0.801744582,-34.13,-30.57,96,,,,,0,0
CAAM,5/24/96,-31.29322917,0.648730736,-33.28,-30.03,96,-31.6765625,0.634747904,-33.58,-30.34,96,,,,,0,0
CAAM,5/25/96,-30.1375,1.246384244,-32.25,-27.31,96,-30.403125,1.217715127,-32.37,-27.57,96,,,,,0,0
CAAM,5/26/96,-27.02114583,1.141768591,-29.15,-25.06,96,-27.13041667,1.121134685,-29.27,-25.21,96,,,,,0,0
CAAM,5/27/96,-25.385625,0.617224368,-27.03,-24.22,96,-25.59510417,0.58978675,-27.22,-24.5,96,,,,,0,0
CAAM,5/28/96,-26.36041667,0.996795832,-28.32,-24.31,96,-26.60583333,0.988777732,-28.39,-24.48,96,,,,,0,0
CAAM,5/29/96,-29.77239583,1.113661335,-31.7,-27.47,96,-29.873125,1.140250492,-31.98,-27.53,96,,,,,0,0
CAAM,5/30/96,-31.93447917,0.78627954,-33.61,-30.34,96,-32.26458333,0.808655696,-33.88,-30.55,96,,,,,0,0
CAAM,5/31/96,-34.59666667,1.736674176,-37.24,-31.13,96,-34.89802083,1.729785883,-37.51,-31.45,96,,,,,0,0
CAAM,6/1/96,-31.51791667,0.892490208,-33.63,-29.11,96,-31.68583333,0.893323383,-33.8,-29.42,96,,,,,0,0
CAAM,6/2/96,-31.91645833,1.461154539,-33.86,-27.54,96,-32.19125,1.449142941,-34.4,-28.35,96,,,,,0,0
CAAM,6/3/96,-22.42104167,4.004813283,-31.09,-16.87,96,-22.83260417,4.049955749,-31.92,-17.24,96,,,,,0,0
CAAM,6/4/96,-28.98333333,1.893050263,-31.7,-18.91,96,-29.24770833,1.903047683,-31.88,-19.13,96,,,,,0,0
CAAM,6/5/96,-29.39041667,1.180420011,-31.79,-26.93,96,-29.74479167,1.043108693,-31.84,-27.45,96,,,,,0,0
CAAM,6/6/96,-28.35197917,1.532941871,-31.44,-24,96,-28.62239583,1.53653249,-31.46,-24.14,96,,,,,0,0
CAAM,6/7/96,-32.91104167,1.924488984,-35.92,-29.01,96,-33.3728125,1.902113342,-36.21,-29.41,96,,,,,0,0
CAAM,6/8/96,-29.83833333,1.692637721,-33.07,-27.05,96,-30.38989583,1.701361371,-33.78,-27.62,96,,,,,0,0